| time (UTC) | temp F | wind direction | speed MPH | gust MPH | rain 1hr in | rain 24hr in | rain mn in | humidity % | barometer mb |
| 20260504150517 | 68 | 158 | 3.0 | 6.0 | 0.00 | 0.00 | 0.00 | 57 | 1001.5 |
| 20260504140517 | 63 | 203 | 3.0 | 7.0 | 0.00 | 0.00 | 0.00 | 58 | 1002.2 |
| 20260504130517 | 58 | 203 | 2.0 | 4.0 | 0.00 | 0.00 | 0.00 | 62 | 1002.5 |
| 20260504110517 | 52 | 0.0 | 2.0 | 0.00 | 0.00 | 0.00 | 67 | 1002.8 | |
| 20260504100517 | 51 | 158 | 1.0 | 4.0 | 0.00 | 0.00 | 0.00 | 67 | 1003.5 |
| 20260504081521 | 51 | 0.0 | 0.0 | 0.00 | 0.00 | 0.00 | 66 | 1004.4 | |
| 20260504080517 | 51 | 0.0 | 0.0 | 0.00 | 0.00 | 0.00 | 65 | 1004.4 | |
| 20260504050517 | 54 | 0.0 | 0.0 | 0.00 | 0.00 | 0.00 | 56 | 1006.7 | |
| 20260504045517 | 55 | 0.0 | 0.0 | 0.00 | 0.00 | 0.00 | 56 | 1006.8 | |
| 20260504044517 | 55 | 0.0 | 0.0 | 0.00 | 0.00 | 0.00 | 53 | 1006.8 | |
| 20260504043517 | 56 | 0.0 | 0.0 | 0.00 | 0.00 | 0.00 | 53 | 1006.9 | |
| 20260504042517 | 57 | 0.0 | 0.0 | 0.00 | 0.00 | 0.00 | 52 | 1007.0 | |
| 20260504041517 | 57 | 0.0 | 0.0 | 0.00 | 0.00 | 0.00 | 50 | 1007.0 | |
| 20260504040538 | 58 | 0.0 | 0.0 | 0.00 | 0.00 | 0.00 | 47 | 1007.2 | |
| 20260504035517 | 58 | 0.0 | 0.0 | 0.00 | 0.00 | 0.00 | 47 | 1007.3 | |
| 20260504034518 | 59 | 0.0 | 3.0 | 0.00 | 0.00 | 0.00 | 46 | 1007.5 | |
| 20260504033517 | 59 | 0.0 | 3.0 | 0.00 | 0.00 | 0.00 | 46 | 1007.6 | |
| 20260504032517 | 59 | 0.0 | 1.0 | 0.00 | 0.00 | 0.00 | 45 | 1007.7 | |
| 20260504031537 | 60 | 0.0 | 1.0 | 0.00 | 0.00 | 0.00 | 44 | 1007.8 | |
| 20260504030518 | 60 | 0.0 | 2.0 | 0.00 | 0.00 | 0.00 | 45 | 1007.8 | |
| 20260504025517 | 60 | 248 | 1.0 | 3.0 | 0.00 | 0.00 | 0.00 | 44 | 1007.8 |
| 20260504024517 | 59 | 203 | 1.0 | 6.0 | 0.00 | 0.00 | 0.00 | 44 | 1007.7 |
| 20260504023517 | 59 | 0.0 | 0.0 | 0.00 | 0.00 | 0.00 | 46 | 1007.6 | |
| 20260504022518 | 60 | 0.0 | 0.0 | 0.00 | 0.00 | 0.00 | 43 | 1007.7 | |
| 20260504021517 | 61 | 0.0 | 0.0 | 0.00 | 0.00 | 0.00 | 42 | 1007.6 | |
| 20260504020517 | 61 | 0.0 | 0.0 | 0.00 | 0.00 | 0.00 | 41 | 1007.5 | |
| 20260504015517 | 62 | 0.0 | 1.0 | 0.00 | 0.00 | 0.00 | 42 | 1007.5 | |
| 20260504014537 | 63 | 0.0 | 1.0 | 0.00 | 0.00 | 0.00 | 40 | 1007.4 | |
| 20260504013515 | 64 | 0.0 | 2.0 | 0.00 | 0.00 | 0.00 | 39 | 1007.4 | |
| 20260504012538 | 65 | 0.0 | 2.0 | 0.00 | 0.00 | 0.00 | 40 | 1007.5 | |
| 20260504011517 | 66 | 0.0 | 0.0 | 0.00 | 0.00 | 0.00 | 39 | 1007.5 | |
| 20260504010517 | 68 | 0.0 | 0.0 | 0.00 | 0.00 | 0.00 | 38 | 1007.5 | |
| 20260504005517 | 69 | 0.0 | 1.0 | 0.00 | 0.00 | 0.00 | 35 | 1007.6 | |
| 20260504004517 | 71 | 248 | 1.0 | 3.0 | 0.00 | 0.00 | 0.00 | 32 | 1007.5 |
| 20260504003517 | 72 | 0.0 | 2.0 | 0.00 | 0.00 | 0.00 | 32 | 1007.6 | |
| 20260504002517 | 73 | 270 | 2.0 | 4.0 | 0.00 | 0.00 | 0.00 | 30 | 1007.7 |
| 20260504001517 | 74 | 293 | 2.0 | 5.0 | 0.00 | 0.00 | 0.00 | 30 | 1007.6 |
| 20260504000517 | 74 | 315 | 1.0 | 4.0 | 0.00 | 0.00 | 0.00 | 29 | 1007.7 |
| 20260504000423 | 74 | 293 | 1.0 | 3.0 | 0.00 | 0.00 | 0.00 | 30 | 1007.7 |